Date String (YYYY-MM-DD hh:mm:ss) UTC,Instrument flags,Ambient pressure (hPa),Sample flow (lpm),Bypass flow (lpm),Sample temperature (°C),Ambient temperature (°C),ASC tube jacket temperature (°C),LED temperature (°C),Box temperature (°C),Sample RH (%),Span deviation,Mass concentration (μg/m³),Mass concentration (μg/m³),Mass concentration (μg/m³)
DateTimeUTC,F1_M11,P_M11,Q1_M11,Q2_M11,T1_M11,T2_M11,T3_M11,T4_M11,T5_M11,U1_M11,ZSPAN_M11,X0_M11,X2_M11,X1_M11
2022-03-10 04:00:00,,0824.2,5.01,0.00,21.9,22.7,00.0,30.8,23.7,06.0,0000.0,0003.79,0002.95,0002.64
2022-03-10 04:01:00,,0824.2,5.00,0.00,21.9,22.5,00.0,30.8,23.8,06.0,0000.0,0003.72,0002.95,0002.64
2022-03-10 04:02:00,,0824.1,5.01,0.00,21.9,21.8,00.0,30.8,23.6,06.0,0000.0,0003.71,0002.97,0002.64
2022-03-10 04:03:00,,0824.1,5.00,0.00,21.8,21.3,00.0,30.8,23.3,06.0,0000.0,0003.75,0002.96,0002.64
2022-03-10 04:04:00,,0824.1,5.00,0.00,21.7,20.8,00.0,30.8,23.2,06.0,0000.0,0003.75,0002.97,0002.64
2022-03-10 04:05:00,,0824.2,4.99,0.00,21.6,20.4,00.0,30.7,22.9,06.0,0000.0,0003.80,0003.00,0002.65
2022-03-10 04:06:00,,0824.3,4.99,0.00,21.4,20.0,00.0,30.7,22.7,06.1,0000.0,0003.80,0003.01,0002.65
2022-03-10 04:07:00,,0824.3,4.99,0.00,21.3,19.8,00.0,30.7,22.6,06.1,0000.0,0003.78,0003.01,0002.64
2022-03-10 04:08:00,,0824.3,5.02,0.00,21.3,20.0,00.0,30.6,22.6,06.1,0000.0,0003.74,0003.00,0002.65
2022-03-10 04:09:00,,0824.2,4.99,0.00,21.4,21.2,00.0,30.6,23.0,06.1,0000.0,0003.78,0002.99,0002.64
2022-03-10 04:10:00,,0824.2,5.01,0.00,21.5,22.2,00.0,30.7,23.3,06.0,0000.0,0003.77,0002.96,0002.62
2022-03-10 04:11:00,,0824.2,5.01,0.00,21.7,22.7,00.0,30.7,23.6,06.0,0000.0,0003.83,0002.92,0002.59
2022-03-10 04:12:00,,0824.2,4.99,0.00,21.7,22.2,00.0,30.7,23.5,06.0,0000.0,0003.86,0002.90,0002.55
2022-03-10 04:13:00,,0824.2,4.98,0.00,21.6,21.5,00.0,30.7,23.2,06.0,0000.0,0003.83,0002.86,0002.51
2022-03-10 04:14:00,,0824.2,5.01,0.00,21.5,20.9,00.0,30.7,23.0,06.0,0000.0,0003.78,0002.85,0002.49
2022-03-10 04:15:00,,0824.2,5.01,0.00,21.4,20.4,00.0,30.6,22.8,06.0,0000.0,0003.77,0002.82,0002.46
2022-03-10 04:16:00,,0824.2,4.99,0.00,21.3,20.1,00.0,30.6,22.7,06.1,0000.0,0003.66,0002.76,0002.42
2022-03-10 04:17:00,,0824.1,5.00,0.00,21.2,19.8,00.0,30.5,22.5,06.1,0000.0,0003.64,0002.73,0002.40
2022-03-10 04:18:00,,0824.1,5.02,0.00,21.2,19.8,00.0,30.5,22.5,06.1,0000.0,0003.60,0002.69,0002.37
2022-03-10 04:19:00,,0824.1,4.99,0.00,21.2,20.9,00.0,30.5,22.8,06.1,0000.0,0003.64,0002.69,0002.35
2022-03-10 04:20:00,,0824.3,5.00,0.00,21.4,21.9,00.0,30.5,23.1,06.1,0000.0,0003.67,0002.69,0002.33
2022-03-10 04:21:00,,0824.3,5.01,0.00,21.6,22.6,00.0,30.6,23.4,06.0,0000.0,0003.75,0002.71,0002.32
2022-03-10 04:22:00,,0824.3,5.00,0.00,21.7,22.3,00.0,30.6,23.5,06.0,0000.0,0003.64,0002.71,0002.32
2022-03-10 04:23:00,,0824.3,4.99,0.00,21.6,21.7,00.0,30.6,23.3,06.0,0000.0,0003.58,0002.69,0002.31
2022-03-10 04:24:00,,0824.3,5.00,0.00,21.5,21.0,00.0,30.6,23.0,06.0,0000.0,0003.72,0002.75,0002.35
2022-03-10 04:25:00,,0824.3,4.99,0.00,21.4,20.5,00.0,30.5,22.8,06.0,0000.0,0003.80,0002.80,0002.39
2022-03-10 04:26:00,,0824.3,4.99,0.00,21.3,20.1,00.0,30.5,22.6,06.0,0000.0,0003.84,0002.85,0002.43
2022-03-10 04:27:00,,0824.3,5.01,0.00,21.2,19.8,00.0,30.4,22.5,06.1,0000.0,0003.95,0002.91,0002.47
2022-03-10 04:28:00,,0824.3,5.00,0.00,21.1,19.8,00.0,30.4,22.4,06.1,0000.0,0003.99,0002.95,0002.51
2022-03-10 04:29:00,,0824.3,4.98,0.00,21.2,20.8,00.0,30.4,22.7,06.1,0000.0,0004.04,0003.00,0002.57
2022-03-10 04:30:00,,0824.3,5.02,0.00,21.3,21.9,00.0,30.5,23.1,06.1,0000.0,0004.11,0003.07,0002.64
2022-03-10 04:31:00,,0824.2,4.98,0.00,21.5,22.2,00.0,30.5,23.3,06.0,0000.0,0004.20,0003.13,0002.70
2022-03-10 04:32:00,,0824.1,5.00,0.00,21.5,21.7,00.0,30.5,23.2,06.0,0000.0,0004.26,0003.17,0002.79
2022-03-10 04:33:00,,0824.1,4.99,0.00,21.4,21.2,00.0,30.5,23.1,06.0,0000.0,0004.42,0003.23,0002.88
2022-03-10 04:34:00,,0824.1,5.00,0.00,21.4,20.8,00.0,30.5,22.9,06.0,0000.0,0004.55,0003.29,0002.97
2022-03-10 04:35:00,,0824.1,5.00,0.00,21.3,20.4,00.0,30.4,22.8,06.0,0000.0,0004.53,0003.30,0003.03
2022-03-10 04:36:00,,0824.2,5.00,0.00,21.3,20.2,00.0,30.4,22.7,06.0,0000.0,0004.49,0003.30,0003.05
2022-03-10 04:37:00,,0824.2,5.00,0.00,21.2,19.9,00.0,30.4,22.6,06.1,0000.0,0004.56,0003.31,0003.07
2022-03-10 04:38:00,,0824.2,5.01,0.00,21.1,19.8,00.0,30.3,22.5,06.1,0000.0,0004.54,0003.31,0003.09
2022-03-10 04:39:00,,0824.3,4.99,0.00,21.1,20.6,00.0,30.3,22.7,06.1,0000.0,0004.64,0003.34,0003.10
2022-03-10 04:40:00,,0824.3,5.00,0.00,21.3,21.7,00.0,30.4,23.1,06.1,0000.0,0004.84,0003.35,0003.10
2022-03-10 04:41:00,,0824.3,5.02,0.00,21.5,22.6,00.0,30.4,23.4,06.0,0000.0,0006.14,0003.33,0003.09
2022-03-10 04:42:00,,0824.3,4.99,0.00,21.6,22.5,00.0,30.5,23.5,06.0,0000.0,0006.11,0003.29,0003.05
2022-03-10 04:43:00,,0824.2,5.00,0.00,21.6,21.9,00.0,30.5,23.3,06.0,0000.0,0006.01,0003.25,0002.99
2022-03-10 04:44:00,,0824.2,5.00,0.00,21.5,21.4,00.0,30.5,23.1,06.0,0000.0,0005.81,0003.18,0002.91
2022-03-10 04:45:00,,0824.3,4.99,0.00,21.4,20.9,00.0,30.4,22.9,06.0,0000.0,0005.81,0003.18,0002.87
2022-03-10 04:46:00,,0824.3,5.00,0.00,21.3,20.5,00.0,30.4,22.7,06.1,0000.0,0005.82,0003.17,0002.83
2022-03-10 04:47:00,,0824.3,5.02,0.00,21.2,20.1,00.0,30.4,22.6,06.1,0000.0,0005.84,0003.18,0002.83
2022-03-10 04:48:00,,0824.3,5.01,0.00,21.1,19.9,00.0,30.3,22.5,06.2,0000.0,0005.80,0003.18,0002.82
2022-03-10 04:49:00,,0824.2,5.00,0.00,21.1,20.6,00.0,30.3,22.7,06.2,0000.0,0005.79,0003.17,0002.80
2022-03-10 04:50:00,,0824.3,5.00,0.00,21.3,21.7,00.0,30.4,23.0,06.1,0000.0,0005.88,0003.15,0002.80
2022-03-10 04:51:00,,0824.3,4.99,0.00,21.5,22.4,00.0,30.4,23.3,06.0,0000.0,0005.79,0003.14,0002.79
2022-03-10 04:52:00,,0824.3,5.00,0.00,21.5,22.1,00.0,30.4,23.4,06.0,0000.0,0004.69,0003.15,0002.79
2022-03-10 04:53:00,,0824.3,4.99,0.00,21.5,21.6,00.0,30.4,23.2,06.0,0000.0,0004.30,0003.17,0002.81
2022-03-10 04:54:00,,0824.3,5.01,0.00,21.4,21.2,00.0,30.4,23.1,06.0,0000.0,0004.28,0003.18,0002.84
2022-03-10 04:55:00,,0824.3,4.98,0.00,21.4,20.8,00.0,30.4,22.9,06.0,0000.0,0004.44,0003.23,0002.90
2022-03-10 04:56:00,,0824.3,5.01,0.00,21.3,20.5,00.0,30.4,22.8,06.0,0000.0,0004.48,0003.24,0002.93
2022-03-10 04:57:00,,0824.3,5.00,0.00,21.2,20.2,00.0,30.3,22.7,06.1,0000.0,0004.50,0003.23,0002.94
2022-03-10 04:58:00,,0824.3,5.00,0.00,21.1,20.2,00.0,30.3,22.6,06.1,0000.0,0004.61,0003.24,0002.96
2022-03-10 04:59:00,,0824.3,4.99,0.00,21.2,21.2,00.0,30.3,22.9,06.1,0000.0,0004.62,0003.23,0002.96
